Location: Berlise
(49.6641°N, 4.1077°E)
Time: 20:07:12
(UTC+00:00)

Cosmos 836 Rocket - Pass Details

Date: 27 January 2021
Orbit: 758 x 777 km, 74.1° (Epoch: 27 February)

Event Time Altitude Azimuth Distance (km) Brightness Sun altitude
Rises 05:53:37 0° 206° (SSW) 3,231 7.6 -14.3°
Reaches altitude 10° 05:56:00 10° 208° (SSW) 2,306 6.8 -14.0°
Maximum altitude 06:01:14 78° 294° (WNW) 790 4.4 -13.1°
Drops below altitude 10° 06:06:29 10° 22° (NNE) 2,310 7.1 -12.3°
Sets 06:08:52 0° 23° (NNE) 3,237 7.9 -11.9°
